Location: *
(60.2031°N, 24.9255°E)
Time: 15:49:53
(UTC+00:00)

Daily predictions for brighter satellites

Satellite Brightness Start Highest point End
(mag) Time Altitude Azimuth Time Altitude Azimuth Time Altitude Azimuth
Cosmos 304 Rocket 3.8 15:23:51 10° SSW 15:28:41 89° WNW 15:33:31 10° NNE
Cosmos 1953 2.4 15:25:09 10° S 15:29:10 63° E 15:33:12 10° NNE
Cosmos 2084 Rocket 4.3 15:27:21 10° WNW 15:31:43 56° SW 15:36:02 10° SE
Cosmos 1242 Rocket 2.8 15:28:42 10° NNW 15:32:26 78° WSW 15:36:06 10° S
Cosmos 292 Rocket 4.5 15:28:13 10° S 15:32:28 34° ESE 15:36:45 10° NE
Cosmos 1470 2.9 15:28:46 10° SSW 15:32:45 83° WNW 15:36:45 10° NNE
SL-27 R/B 3.7 15:32:00 10° NNW 15:34:39 21° NE 15:37:18 10° E
GP-B 3.9 15:30:38 10° N 15:35:02 57° W 15:39:23 10° SSW
SJ 16-02 2.1 15:32:48 10° NNW 15:36:49 33° NE 15:40:49 10° ESE
Cosmos 1271 Rocket 4.2 15:34:37 10° NNW 15:38:27 45° W 15:42:17 10° S
PSLV R/B 3.9 15:36:55 10° NNE 15:41:05 76° ESE 15:45:15 10° SSW
Cosmos 1758 3.7 15:37:44 10° SSW 15:41:43 69° WNW 15:45:42 10° N
CORIOLIS 4.4 15:36:27 10° SSE 15:41:50 78° WSW 15:47:16 10° NNW
SMAP 3.6 15:39:04 10° S 15:43:42 65° WSW 15:48:22 10° NNW
Cosmos 2227 Rocket 3.6 15:39:52 10° WNW 15:44:48 29° N 15:49:44 10° NE
Cosmos 371 Rocket 4.3 15:40:17 10° WSW 15:44:56 46° NW 15:49:36 10° NNE
Cosmos 2058 Rocket 3.3 15:42:06 10° SSE 15:46:17 47° E 15:50:31 10° NNE
NOAA 12 4.2 15:42:42 10° SSE 15:48:01 89° WSW 15:53:24 10° NNW
Envisat 3.0 15:43:59 10° SSE 15:49:04 78° ENE 15:54:11 10° NNW
Cosmos 2297 Rocket 3.6 15:44:28 10° WNW 15:49:21 28° N 15:54:14 10° NE
Cosmos 2082 Rocket 2.4 15:44:22 10° NW 15:50:07 78° SW 15:55:49 10° SSE
Cosmos 1300 4.2 15:47:53 10° ESE 15:50:16 16° E 15:52:39 10° NE
Cosmos 1328 4.0 15:46:18 10° NNW 15:50:18 75° WSW 15:54:15 10° S
Cosmos 1898 Rocket 3.6 15:45:23 10° NNW 15:50:36 57° NE 15:55:50 10° SE
COSMO-SKYMED 1 3.5 15:47:49 10° NNE 15:51:36 28° E 15:55:20 10° SSE
Okean O Rocket 4.4 15:48:00 10° SSW 15:51:40 25° W 15:55:22 10° NW
Cosmos 1408 4.5 15:52:09 10° NNE 15:54:13 14° NE 15:55:37 12° ENE
CSL-04 Debris 4.2 15:49:13 10° SE 15:54:38 64° ENE 16:00:05 10° NNW
Cosmos 1459 Rocket 4.3 15:51:10 10° N 15:57:05 43° ENE 16:03:04 10° SE
Cosmos 2058 3.4 15:56:11 10° N 16:00:12 39° ENE 16:04:10 10° SE
Cosmos 1844 Rocket 2.7 15:54:45 10° SW 16:00:26 87° SE 16:06:06 10° NE
H-2A R/B 3.7 15:57:03 10° S 16:00:55 53° W 16:04:47 10° NNW
Cosmos 1356 3.5 15:57:43 10° S 16:01:06 54° E 16:04:30 10° NNE
CZ-4 R/B 4.4 15:57:54 10° SSE 16:02:01 75° ENE 16:06:10 10° NNW
H-2A R/B 3.3 16:00:03 10° E 16:04:20 26° NE 16:08:45 10° N
CZ-2D R/B 3.7 16:01:18 10° SE 16:04:57 40° ENE 16:08:38 10° N
Cosmos 1766 Rocket 4.5 16:01:58 10° N 16:05:45 28° ENE 16:09:30 10° ESE
Cosmos 1076 Rocket 3.6 16:01:44 10° N 16:06:04 54° ENE 16:10:19 10° SSE
Cosmos 2061 Rocket 4.4 16:04:19 10° N 16:10:15 42° ENE 16:16:06 10° SE
Cosmos 1605 Rocket 4.1 16:05:41 10° NNW 16:11:56 86° W 16:18:04 10° S
In-Cosmos 22 Rocket 4.3 16:06:47 10° NNW 16:12:03 51° ENE 16:17:25 10° SE
Cosmos 1606 Rocket 3.9 16:09:31 10° SSW 16:13:52 68° WNW 16:18:12 10° N
Cosmos 724 4.4 16:07:59 10° WSW 16:14:06 82° NNW 16:19:56 11° ENE
IRS-1A Rocket 4.5 16:08:51 10° SE 16:14:08 49° ENE 16:19:30 10° NNW
Cosmos 1125 Rocket 4.5 16:09:32 10° NNW 16:14:13 30° NNE 16:17:40 16° E
NOSS 3-2 (A) 4.5 16:10:03 10° S 16:14:51 25° ESE 16:19:08 14° ENE
ATLAS 5 CENTAUR R/B 1.8 16:11:01 10° WSW 16:15:38 88° NNW 16:20:16 14° ENE
Okean-O 3.7 16:12:43 10° S 16:17:01 49° W 16:21:22 10° NNW
Cosmos 1939 Rocket 3.1 16:14:38 10° SE 16:18:34 49° ENE 16:22:34 10° N
CZ-4B R/B 4.1 16:17:07 10° NNW 16:19:01 15° NW 16:20:56 10° W
Cosmos 1726 2.0 16:16:24 10° S 16:20:03 84° ESE 16:23:44 10° NNE
Cosmos 2151 3.6 16:17:52 10° N 16:21:53 36° ENE 16:25:52 10° SE
Cosmos 2084 3.5 16:17:31 10° WSW 16:22:02 83° SSE 16:25:24 17° ENE
Okean 3 Rocket 4.0 16:18:13 10° N 16:22:36 43° ENE 16:26:55 10° SE
Cosmos 2173 Rocket 4.0 16:21:47 10° N 16:28:02 62° ENE 16:34:10 10° SSE
Cosmos 1818 4.0 16:24:18 10° WNW 16:29:40 52° N 16:33:31 19° ENE
Cosmos 1607 4.3 16:23:36 10° W 16:29:42 60° NNW 16:34:46 16° ENE
Ariane Rocket 3.0 16:26:41 10° SE 16:31:44 63° ENE 16:36:48 10° NNW
Meteor 2-10 3.9 16:27:22 10° SSW 16:32:24 87° ESE 16:37:32 10° NNE
ASTEX 1 3.4 16:27:45 10° N 16:32:46 89° E 16:37:45 10° S
Cosmos 1727 Rocket 4.0 16:28:28 10° S 16:34:27 55° E 16:40:29 10° NNE
Cosmos 1812 Rocket 3.8 16:31:00 10° SSE 16:35:17 47° E 16:39:36 10° NNE
Cosmos 2228 3.9 16:31:22 10° SSW 16:35:37 52° WNW 16:39:52 10° N
Cosmos 990 Rocket 4.0 16:31:18 10° NNW 16:36:33 88° WSW 16:41:47 10° SSE
Cosmos 2219 4.4 16:31:52 10° NW 16:36:50 29° NNE 16:40:19 16° ENE
Cosmos 2278 Rocket 2.3 16:32:01 10° SSW 16:37:34 57° ESE 16:43:09 10° NE
Meteor 1-16 Rocket 4.3 16:32:34 10° SSW 16:37:59 75° WNW 16:43:21 10° NNE
Lacrosse 5 4.3 16:34:44 10° W 16:38:15 19° SW 16:41:47 10° S
Resurs 01 Rocket 3.0 16:38:16 20° ENE 16:39:09 21° NE 16:42:28 10° N
Cosmos 1908 3.2 16:35:24 10° SSW 16:39:18 90° ESE 16:43:13 10° NNE
Cosmos 1937 Rocket 3.4 16:34:08 10° NNW 16:39:19 82° ENE 16:44:29 10° SE
SKYMED 2 3.5 16:35:38 10° NNE 16:39:58 62° ESE 16:44:18 10° S
Cosmos 2150 Rocket 4.3 16:35:10 10° NNW 16:40:32 52° NE 16:44:11 20° ESE
Cosmos 921 Rocket 3.6 16:37:05 10° SW 16:41:31 61° WNW 16:45:54 10° NNE
Cosmos 858 Rocket 4.4 16:36:18 10° NNW 16:41:33 86° NE 16:46:46 10° SSE
NOSS 3-2 (C) 4.4 16:37:05 10° S 16:41:55 26° ESE 16:44:15 21° E
HJ-1C 3.5 16:39:48 17° SE 16:42:13 52° ENE 16:45:30 10° N
Cosmos 1802 Rocket 4.0 16:35:54 10° NNW 16:42:21 65° ENE 16:48:43 10° SSE
deb Kosmos-1763 4.0 16:39:02 10° NNW 16:42:47 75° NE 16:45:23 19° SE
CSL-04 Rocket 4.0 16:38:26 10° S 16:43:55 70° WSW 16:49:22 10° NNW
Cosmos 2297 4.5 16:39:17 10° SSE 16:44:07 29° ESE 16:47:20 18° ENE
YAOGAN 6 3.6 16:42:13 10° S 16:45:46 49° W 16:49:16 10° NNW
Cosmos 1844 4.0 16:40:21 10° SW 16:46:07 70° NW 16:51:57 10° NE
YAOGAN 1 3.0 16:41:54 10° S 16:46:12 64° WSW 16:50:32 10° NNW
Cosmos 2233 Rocket 4.5 16:42:48 10° N 16:48:44 41° ENE 16:52:45 20° ESE
ARGOS 3.7 16:46:19 21° ESE 16:49:26 40° ENE 16:54:29 10° N
Cosmos 2263 Rocket 3.5 16:45:16 10° W 16:50:23 34° NNW 16:55:29 10° NE
Cosmos 1825 3.1 16:47:40 10° N 16:51:01 28° ENE 16:51:04 28° ENE
Cosmos 1725 Rocket 4.1 16:46:16 10° N 16:52:27 56° ENE 16:58:39 10° SE
CZ-4 R/B 2.6 16:49:29 10° S 16:53:34 46° W 16:57:41 10° NNW
SJ-11-01 4.4 16:50:12 16° SE 16:53:50 55° ENE 16:58:25 10° NNW
USA 116 3.3 16:52:32 10° NNE 16:55:40 52° ESE 16:59:01 10° S
FREGAT/IRIS 3.0 16:56:53 41° NE 16:56:53 41° NE 16:59:12 10° N
ATLAS CENTAUR R/B 1.5 16:53:08 10° WNW 16:57:51 77° NNE 16:59:50 32° ESE
Cosmos 372 Rocket 4.0 16:53:38 10° NNW 16:58:46 59° NE 17:01:31 27° ESE
Cosmos 2100 Rocket 4.0 16:52:32 10° NNW 16:58:48 89° WSW 17:04:58 10° S
Cosmos 1892 2.6 16:56:27 10° N 17:00:16 67° ENE 17:02:35 22° SSE
SJ-6B 3.1 17:01:07 39° E 17:01:44 42° ENE 17:05:18 10° N
USA 186 3.9 17:05:55 11° N 17:05:55 11° N 17:06:05 10° N
GEOS 3 Rocket 4.1 17:00:54 22° ENE 17:04:03 52° N 17:09:05 10° W
ATLAS 3B R/B 3.4 16:59:09 10° S 17:04:32 27° ESE 17:05:11 26° ESE
NOAA 11 4.4 17:00:46 10° SSE 17:06:12 74° WSW 17:11:40 10° NNW
Cosmos-2242 3.4 17:02:45 10° SSE 17:06:47 39° E 17:10:49 10° NNE
Cosmos 44 4.2 17:03:09 10° S 17:06:48 27° SE 17:06:48 27° SE
Cosmos 1763 Rocket 4.5 17:04:04 10° SSE 17:07:19 26° SE 17:07:19 26° SE
CZ-2C R/B 3.7 17:07:08 29° ESE 17:09:27 42° ENE 17:14:43 10° N
MONITOR-E 3.7 17:09:26 83° E 17:09:27 83° ENE 17:12:16 10° NNW
SL-27 R/B 2.4 17:06:49 10° NW 17:10:09 72° WSW 17:11:27 34° SSE
CENTAUR R/B 3.4 17:04:56 10° S 17:10:14 29° ESE 17:11:09 28° ESE
Cosmos 2298 Rocket 3.9 17:05:44 10° NNW 17:11:05 77° NE 17:14:08 26° SE
Cosmos 292 Rocket 4.3 17:07:49 10° SW 17:12:32 60° NW 17:17:17 10° NNE
COSMOS 2487 3.3 17:09:48 10° NNW 17:12:44 34° NE 17:12:44 34° NE
Cosmos 2016 Rocket 3.9 17:07:05 10° NNW 17:13:25 81° ENE 17:19:47 10° SSE
SJ 16-02 1.8 17:11:22 10° NW 17:15:43 61° WSW 17:19:25 14° SSE
Cosmos 1833 4.2 17:10:16 10° NW 17:15:54 67° NE 17:18:24 34° ESE
Cosmos 1743 Rocket 3.9 17:11:46 10° N 17:15:55 40° ENE 17:16:07 40° ENE
SL-08 R/B 4.3 17:16:44 10° NNW 17:22:54 81° ENE 17:29:01 10° SSE
Terra 3.8 17:23:38 14° NE 17:23:38 14° NE 17:25:57 10° N
Meteor 2-3 Rocket 3.9 17:17:52 10° NNW 17:23:33 53° ENE 17:25:41 35° ESE
Cosmos 1300 2.6 17:21:35 10° SSW 17:25:25 84° WNW 17:29:16 10° NNE
COSMO-SKYMED 1 3.1 17:23:47 10° NNE 17:28:05 59° WNW 17:32:22 10° SW
SPOT 3 Rocket 3.5 17:25:19 28° SE 17:28:05 74° ENE 17:33:20 10° NNW
Cosmos 1408 2.4 17:26:14 10° N 17:29:59 72° ENE 17:29:59 72° ENE
Cosmos 2227 Rocket 3.3 17:25:18 10° NW 17:30:25 32° NNE 17:32:20 26° NE
Cosmos 2297 Rocket 3.2 17:29:48 10° NW 17:34:56 33° NNE 17:36:39 28° NE
Cosmos 2058 4.4 17:33:13 10° NNW 17:37:08 37° W 17:41:02 10° SSW
MetOp-A 4.2 17:36:51 45° ESE 17:38:02 55° ENE 17:43:16 10° NNW
USA 238 DEB 3.6 17:36:15 10° SW 17:42:57 65° SE 17:46:09 34° ENE
USA 238 3.6 17:36:22 10° SW 17:43:03 65° SE 17:46:13 34° ENE
H-2A R/B 2.0 17:40:42 34° SSE 17:43:09 81° ENE 17:48:39 10° NNW
Cosmos 1766 Rocket 4.0 17:39:40 10° NNW 17:43:57 59° W 17:47:01 18° S
Cosmos 1844 Rocket 3.9 17:39:38 10° W 17:44:55 39° NNW 17:49:24 14° NE
Cosmos 1500 Rocket 3.5 17:44:54 10° N 17:49:13 65° ENE 17:49:13 65° ENE
Timation 2 Rocket 3.8 17:47:08 10° NW 17:53:10 77° NE 17:54:41 52° ESE
Cosmos 1408 Rocket 3.7 17:49:18 10° NNW 17:53:37 68° W 17:54:55 42° SSW
Cosmos 1125 Rocket 3.4 17:51:41 10° NNW 17:57:02 85° NE 17:57:57 62° SE
SL-08 RB Rocket 3.5 17:57:52 75° ENE 17:57:52 75° ENE 18:02:21 10° NNW
Cosmos 2151 4.1 17:55:12 10° NNW 17:59:18 43° W 18:02:28 16° SSW
ATLAS 5 CENTAUR R/B 2.2 17:55:49 10° W 18:00:39 62° N 18:01:48 49° NE
Cosmos 2084 3.7 17:57:20 10° W 18:01:47 62° N 18:01:57 61° N
SPOT 5 4.3 18:05:12 28° NE 18:05:12 28° NE 18:08:55 10° N
NOSS 3-2 (A) 3.4 17:58:35 10° SW 18:04:39 70° SE 18:06:32 48° ENE
ADEOS Rocket 3.4 18:00:30 10° NNE 18:08:12 61° E 18:13:05 22° S
Cosmos 972 Rocket 4.1 18:04:33 10° NNW 18:09:51 85° WSW 18:10:58 59° SSE
Cosmos 1818 3.4 18:08:16 10° WNW 18:13:47 80° NNE 18:14:09 75° ENE
Resurs 01 Rocket 1.9 18:15:51 61° N 18:15:51 61° N 18:19:36 10° NNW
Cosmos 468 Rocket 3.8 18:10:05 10° SSW 18:15:21 85° ESE 18:15:41 78° ENE
Cosmos 1238 Rocket 4.0 18:10:24 10° NNW 18:17:07 84° W 18:19:21 44° S
Cosmos 1607 4.1 18:11:35 10° WNW 18:17:42 60° NNE 18:18:52 51° NE
Resurs 1-3 3.8 18:19:45 68° NW 18:19:45 68° NW 18:23:43 10° NNW
Cosmos 1072 Rocket 4.3 18:15:14 10° NNW 18:21:25 67° ENE 18:21:39 66° E
Cosmos 2278 Rocket 2.9 18:16:16 10° WSW 18:21:50 52° NW 18:25:42 20° NNE
Cosmos 2219 3.5 18:16:37 10° NW 18:22:11 52° NE 18:22:14 52° NE
Cosmos 1464 Rocket 3.9 18:17:01 10° NNW 18:23:22 65° ENE 18:23:35 65° E
Cosmos 1825 3.5 18:23:05 10° NNW 18:25:54 38° WNW 18:25:54 38° WNW
Cosmos 2297 3.6 18:22:03 10° SW 18:27:47 86° NW 18:29:18 52° NE
Cosmos 1891 Rocket 4.4 18:22:22 10° NNW 18:28:52 70° ENE 18:29:13 68° E
ARGOS 3.6 18:27:50 39° SSW 18:29:36 58° WSW 18:35:00 10° NNW
NOSS 3-2 (C) 3.4 18:25:42 10° SW 18:31:44 70° SE 18:31:44 70° SE
Cosmos 2233 Rocket 4.4 18:28:12 10° NNW 18:34:25 62° W 18:37:22 32° SSW
Cosmos 2263 Rocket 3.6 18:31:00 10° NW 18:35:50 28° N 18:37:09 25° NNE
Cosmos 2123 Rocket 4.1 18:29:43 10° SSW 18:36:01 75° WNW 18:42:17 10° NNE
SJ-6B 4.5 18:36:45 30° W 18:36:45 30° W 18:39:53 10° NNW
ATLAS CENTAUR R/B 2.8 18:32:24 10° WNW 18:36:02 35° WSW 18:36:02 35° WSW
ERS-1 Rocket 4.0 18:43:05 37° NNE 18:43:05 37° NNE 18:46:26 10° NNW
GEOS 3 Rocket 3.9 18:42:00 60° N 18:42:00 60° N 18:46:53 10° WNW
Spot 2 Rocket 3.8 18:44:07 61° NNW 18:44:07 61° NNW 18:48:19 10° NNW
Cosmos-2242 4.3 18:40:18 10° SW 18:44:23 39° WNW 18:48:29 10° N
SPOT 1/Viking Rocket 4.4 18:48:23 41° N 18:48:23 41° N 18:51:58 10° NNW
CZ-2C R/B 3.7 18:48:13 51° SW 18:49:13 59° W 18:54:49 10° NNW
SL-24 R/B - RUBIN 2 4.4 18:44:21 10° WNW 18:49:59 72° N 18:49:59 72° N
MetOp-B 4.4 18:53:04 66° NNW 18:53:04 66° NNW 18:57:42 10° NNW
SJ 16-02 4.2 18:51:32 10° WNW 18:53:27 13° W 18:55:21 10° WSW
ATLAS 3B R/B 3.0 18:47:41 10° SW 18:52:29 48° SSW 18:52:29 48° SSW
CENTAUR R/B 2.9 18:53:32 10° SW 18:58:22 55° SSW 18:58:22 55° SSW
Terra 3.5 19:02:32 25° N 19:02:32 25° N 19:04:46 10° N
Cosmos 2034 Rocket 4.1 18:57:57 10° NNW 19:03:28 70° N 19:03:28 70° N
Cosmos 2227 Rocket 2.9 19:09:45 10° NW 19:14:09 50° NNW 19:14:09 50° NNW
Cosmos 2297 Rocket 2.9 19:14:12 10° NW 19:18:26 50° NNW 19:18:26 50° NNW
H-2A R/B 4.0 19:21:20 22° WSW 19:23:11 27° W 19:27:46 10° NNW
Cosmos 1844 Rocket 4.3 19:25:25 10° WNW 19:30:14 28° N 19:31:03 27° NNE
USA 238 DEB 3.8 19:27:07 10° W 19:33:35 72° NW 19:33:35 72° NW
USA 238 3.8 19:27:14 10° W 19:33:39 72° NW 19:33:39 72° NW
SPOT 5 4.5 19:44:26 35° NNW 19:44:26 35° NNW 19:47:24 10° NNW
ATLAS 5 CENTAUR R/B 3.5 19:40:34 10° WNW 19:43:21 34° WNW 19:43:21 34° WNW
Resurs 01 Rocket 4.1 19:53:26 19° WNW 19:53:26 19° WNW 19:55:34 10° NW
ADEOS Rocket 4.2 19:46:10 10° NNE 19:53:37 52° NW 19:59:59 13° SW
NOSS 3-2 (A) 4.2 19:49:17 10° W 19:53:56 51° WNW 19:53:56 51° WNW
Cosmos 2278 Rocket 3.8 20:02:08 10° WNW 20:07:06 30° N 20:07:32 29° N
Cosmos 2263 Rocket 3.8 20:15:43 10° NW 20:18:50 30° NNW 20:18:50 30° NNW
Terra 4.4 20:41:26 17° NNW 20:41:26 17° NNW 20:42:39 10° NNW
Cosmos 2227 Rocket 4.3 20:54:04 10° NW 20:55:57 20° NW 20:55:57 20° NW
Cosmos 2297 Rocket 4.4 20:58:31 10° NW 21:00:14 19° WNW 21:00:14 19° WNW
SL-16 R/B 4.2 21:40:25 27° NNE 21:40:25 27° NNE 21:44:27 10° NNW
Cosmos 2369 Rocket 4.4 22:46:20 20° NE 22:46:20 20° NE 22:48:27 10° NE
Cosmos 1943 Rocket 4.3 23:01:18 22° NE 23:01:18 22° NE 23:04:05 10° ENE
Cosmos 1980 Rocket 4.3 23:08:24 23° NE 23:08:24 23° NE 23:10:25 10° NE
SL-16 R/B 4.0 23:25:32 30° NNW 23:25:32 30° NNW 23:28:28 10° NNW
Cosmos 2344 4.0 23:26:09 74° N 23:26:16 74° N 23:37:03 10° E
Resurs 1-4 Rocket 3.9 23:44:55 10° NNE 23:47:39 28° NE 23:47:39 28° NE
